Location: Unnamed
(45.3580°N, 90.2245°W)
Time: 09:33:03
(UTC-05:00)

Envisat - Pass Details

Date: 15 March 2021
Orbit: 764 x 766 km, 98.1° (Epoch: 17 April)

Event Time Altitude Azimuth Distance (km) Brightness Sun altitude
Rises 05:53:17 0° 23° (NNE) 3,242 6.8 -14.7°
Reaches altitude 10° 05:55:53 10° 34° (NNE) 2,311 6.2 -14.3°
Maximum altitude 06:00:20 30° 95° (E) 1,351 5.1 -13.5°
Drops below altitude 10° 06:04:45 10° 156° (SSE) 2,294 5.6 -12.8°
Sets 06:07:18 0° 167° (SSE) 3,215 6.3 -12.3°
